Tel Aviv, Israel

5:23 AM IDT on June 19, 2018 (GMT +0300)
Ben Gurion

Weather History for LLBG - June, 2018

Change the Weather History Date:

Wednesday, June 13, 2018

  Actual Average Record
Temperature  
Mean Temperature 77 °F -  
Max Temperature 84 °F 85 °F 95 °F (2016)
Min Temperature 70 °F 69 °F 64 °F (2001)
Cooling Degree Days 12    
Growing Degree Days 27 (Base 50)    
Moisture  
Dew Point 67 °F    
Average Humidity 70    
Maximum Humidity 88    
Minimum Humidity 49    
Precipitation  
Precipitation 0.00 in - - ()
Sea Level Pressure  
Sea Level Pressure 29.65 in    
Wind  
Wind Speed 7 mph ()    
Max Wind Speed 16 mph    
Max Gust Speed -    
Visibility 6.1 miles    
Events Rain    
Averages and records for this station are not official NWS values.
T = Trace of Precipitation, MM = Missing Value Source: Averaged Metar Reports

Daily Weather History Graph

Daily Weather History Graph

Search for Another Location

Airport or City:

Astronomy

Jun. 13, 2018 Rise Set
Actual Time 5:33 AM IDT 7:47 PM IDT
Civil Twilight 5:05 AM IDT 8:15 PM IDT
Nautical Twilight 4:31 AM IDT 8:49 PM IDT
Astronomical Twilight 3:53 AM IDT 9:27 PM IDT
Moon 5:12 AM IDT (6/13) 7:23 PM IDT (6/13)
Length of Visible Light 15h 09m
Length of Day
14h 13m
Waning Crescent, 0% of the Moon is Illuminated
Jun 13
Waning Crescent
Jun 13
New
Jun 20
First Quarter
Jun 28
Full
Jul 6
Last Quarter

Hourly Weather History & Observations

Time (IDT) Temp. Heat Index Dew Point Humidity Pressure Visibility Wind Dir Wind Speed Gust Speed Precip Events Conditions
12:00 AM 76 °F - 67 °F 66% 29.68 in 6 mi 2.3 mph - -   Partly Cloudy
12:20 AM 77.0 °F - 66.2 °F 69% 29.68 in 6.2 mi SSE 6.9 mph - N/A   Scattered Clouds
12:50 AM 75.2 °F - 66.2 °F 73% 29.65 in 6.2 mi SSE 8.1 mph - N/A   Scattered Clouds
1:20 AM 75.2 °F - 66.2 °F 73% 29.65 in 6.2 mi South 5.8 mph - N/A   Scattered Clouds
1:50 AM 75.2 °F - 66.2 °F 73% 29.65 in 6.2 mi SSE 6.9 mph - N/A   Scattered Clouds
2:20 AM 75.2 °F - 66.2 °F 73% 29.62 in 6.2 mi SSE 6.9 mph - N/A   Scattered Clouds
2:50 AM 75.2 °F - 66.2 °F 73% 29.62 in 6.2 mi SSE 6.9 mph - N/A   Scattered Clouds
3:00 AM 74 °F - 65 °F 68% 29.64 in 6 mi South 5.8 mph - -   Mostly Cloudy
3:20 AM 73.4 °F - 66.2 °F 78% 29.62 in 6.2 mi South 5.8 mph - N/A   Partly Cloudy
3:50 AM 73.4 °F - 64.4 °F 73% 29.62 in 6.2 mi SSW 5.8 mph - N/A   Partly Cloudy
4:20 AM 73.4 °F - 64.4 °F 73% 29.62 in 6.2 mi South 4.6 mph - N/A   Partly Cloudy
4:50 AM 73.4 °F - 66.2 °F 78% 29.62 in 6.2 mi South 4.6 mph - N/A   Scattered Clouds
5:20 AM 73.4 °F - 66.2 °F 78% 29.62 in 6.2 mi South 6.9 mph - N/A   Scattered Clouds
6:20 AM 71.6 °F - 68.0 °F 88% 29.65 in 5.0 mi South 10.4 mph - N/A Rain Rain
6:50 AM 71.6 °F - 68.0 °F 88% 29.65 in 5.6 mi South 5.8 mph - N/A   Partly Cloudy
7:20 AM 73.4 °F - 69.8 °F 88% 29.65 in 6.2 mi South 4.6 mph - N/A   Partly Cloudy
7:50 AM 73.4 °F - 69.8 °F 88% 29.65 in 6.2 mi South 8.1 mph - N/A   Partly Cloudy
8:20 AM 75.2 °F - 68.0 °F 78% 29.65 in 6.2 mi South 8.1 mph - N/A   Partly Cloudy
8:50 AM 77.0 °F - 69.8 °F 78% 29.65 in 6.2 mi South 6.9 mph - N/A   Partly Cloudy
9:00 AM 76 °F - 68 °F 71% 29.67 in 6 mi South 6.9 mph - -   Scattered Clouds
9:20 AM 77.0 °F - 68.0 °F 74% 29.65 in 6.2 mi SW 6.9 mph - N/A   Scattered Clouds
9:50 AM 77.0 °F - 68.0 °F 74% 29.65 in 6.2 mi SW 6.9 mph - N/A   Scattered Clouds
10:20 AM 80.6 °F 83.2 °F 68.0 °F 65% 29.65 in 6.2 mi WSW 5.8 mph - N/A   Scattered Clouds
10:50 AM 80.6 °F 82.7 °F 66.2 °F 61% 29.65 in 6.2 mi West 8.1 mph - N/A   Scattered Clouds
11:20 AM 82.4 °F 84.6 °F 66.2 °F 58% 29.65 in 6.2 mi West 8.1 mph - N/A   Partly Cloudy
11:50 AM 82.4 °F 85.4 °F 68.0 °F 62% 29.65 in 6.2 mi West 10.4 mph - N/A   Scattered Clouds
12:20 PM 82.4 °F 83.9 °F 64.4 °F 54% 29.65 in 6.2 mi West 11.5 mph - N/A   Scattered Clouds
12:50 PM 82.4 °F 84.6 °F 66.2 °F 58% 29.65 in 6.2 mi West 11.5 mph - N/A   Scattered Clouds
1:20 PM 82.4 °F 84.6 °F 66.2 °F 58% 29.65 in 6.2 mi West 10.4 mph - N/A   Scattered Clouds
1:50 PM 84.2 °F 87.3 °F 68.0 °F 58% 29.65 in 6.2 mi West 12.7 mph - N/A   Scattered Clouds
2:20 PM 82.4 °F 84.6 °F 66.2 °F 58% 29.65 in 6.2 mi West 12.7 mph - N/A   Scattered Clouds
2:50 PM 82.4 °F 85.4 °F 68.0 °F 62% 29.65 in 6.2 mi West 13.8 mph - N/A   Scattered Clouds
3:00 PM 83 °F - 67 °F 49% 29.65 in 6 mi West 13.8 mph - -   Partly Cloudy
3:20 PM 82.4 °F 85.4 °F 68.0 °F 62% 29.65 in 6.2 mi West 16.1 mph - N/A   Scattered Clouds
3:50 PM 84.2 °F 87.3 °F 68.0 °F 58% 29.62 in 6.2 mi West 11.5 mph - N/A   Partly Cloudy
4:20 PM 82.4 °F 85.4 °F 68.0 °F 62% 29.62 in 6.2 mi West 13.8 mph - N/A   Partly Cloudy
4:50 PM 82.4 °F 85.4 °F 68.0 °F 62% 29.62 in 6.2 mi West 12.7 mph - N/A   Partly Cloudy
5:20 PM 82.4 °F 85.4 °F 68.0 °F 62% 29.62 in 6.2 mi West 10.4 mph - N/A   Partly Cloudy
5:50 PM 80.6 °F 83.2 °F 68.0 °F 65% 29.62 in 6.2 mi West 9.2 mph - N/A   Partly Cloudy
6:00 PM 81 °F - 68 °F 56% 29.64 in 6 mi West 8.1 mph - -   Scattered Clouds
6:20 PM 80.6 °F 82.7 °F 66.2 °F 61% 29.62 in 6.2 mi West 6.9 mph - N/A   Partly Cloudy
6:50 PM 80.6 °F 83.2 °F 68.0 °F 65% 29.62 in 6.2 mi West 8.1 mph - N/A   Partly Cloudy
7:20 PM 78.8 °F - 68.0 °F 69% 29.65 in 6.2 mi WNW 8.1 mph - N/A   Partly Cloudy
7:50 PM 77.0 °F - 68.0 °F 74% 29.65 in 6.2 mi WNW 6.9 mph - N/A   Partly Cloudy
8:20 PM 77.0 °F - 68.0 °F 74% 29.65 in - WNW 4.6 mph - N/A   Clear
8:50 PM 77.0 °F - 68.0 °F 74% 29.68 in - WNW 4.6 mph - N/A   Clear
9:00 PM 77 °F - 69 °F 70% 29.68 in 6 mi WNW 4.6 mph - -  
9:20 PM 77.0 °F - 68.0 °F 74% 29.68 in - Variable 3.5 mph - N/A   Clear
9:50 PM 77.0 °F - 68.0 °F 74% 29.68 in - Variable 3.5 mph - N/A   Clear
10:20 PM 77.0 °F - 68.0 °F 74% 29.68 in - SSW 4.6 mph - N/A   Clear
10:50 PM 77.0 °F - 68.0 °F 74% 29.68 in - Variable 3.5 mph - N/A   Clear
11:20 PM 75.2 °F - 68.0 °F 78% 29.68 in - Variable 3.5 mph - N/A   Clear
11:50 PM 75.2 °F - 68.0 °F 78% 29.68 in - Variable 2.3 mph - N/A   Clear